STARLINK-2410 (47825 NORAD) Tracking and Keplerian Element Data

This shows tracking and keplerian element data for the satellite.

Feedback or suggestion? Click here.




ElementValue
Catalog47825
NameSTARLINK-2410
Epoch Orbit1671
Epoch Day170.451581
Epoch Year2021
RAAN72.017
Inclination53.0549
Eccentricity0.0002206
Argument of Perigee78.963
Mean Anonmoly281.1607
Mean Motion15.0639205
Decay Rate-7.68E-06
L11 47825U 21018AQ 21170.45158100 -.00000768 00000-0 -32630-4 0 9994
L22 47825 53.0549 72.0170 0002206 78.9630 281.1607 15.06392050 16715

Live tracking and technical data element details for STARLINK-2410 (NORAD 47825). STARLINK-2410 can be tracked NOW for your location showing map with azimuth and elevation plus other details from your city location.

Track the satellite on the map from your city or location and see movement details for azimuth, elevation, latitude, longitude, range, height, and movement on the map or in text.







IsCatalogInMostPopularTable: catalog: 47825, numindb: 47
Update: records affected: 1



GetName: 47825 STARLINK-2410

Hit Count: updated at: Mon, 21 Jun 2021 04:58:43 GMT